Powrót do katalogu

PRSC-E03

AktywnyNaukaVLEO
NORAD 68835·PAYLOAD·🇨🇳 China

Wystrzelony Apr 25, 2026 z Taiyuan Satellite Launch Center

Loading…

Następne Przeloty (najbliższe 24 godziny)

TLE

ŚwieżeSource: Space-Track

Epoka: Sep 14, 2026, 12:22 UTC

1 68835U 26092A   26257.51562781  .00001839  00000-0  12754-3 0  9999
2 68835  38.0012 282.7665 0003958 354.9956   5.0766 15.07049765 21436

Śledź PRSC-E03 w czasie rzeczywistym z AllMySat

Download on the App Store